Location: Middlebury
(44.0133°N, 73.1813°W)
Time: 09:22:10
(UTC-05:00)

ISS - Pass Details

Date: 18 January 2020
Orbit: 415 x 423 km, 51.6° (Epoch: 01 March)

Event Time Altitude Azimuth Distance (km) Brightness Sun altitude
Rises 18:24:50 0° 190° (S) 2,365 0.3 -17.9°
Reaches altitude 10° 18:27:45 10° 162° (SSE) 1,504 -1.0 -18.4°
Enters shadow 18:28:02 11° 158° (SSE) 1,450 -1.1 -18.4°
